EW3411 Weather Reports


Display with metric or nautical units.
time (UTC)temp
F
wind
direction
speed
MPH
gust
MPH
rain 1hr
in
rain 24hr
in
rain mn
in
humidity
%
barometer
mb
20260508080510 41 313 7.0 16.0 0.00 0.00 0.00 82 1004.4
20260508080029 41 343 9.0 16.0 0.00 0.00 0.00 83 1004.3
20260508075512 41 322 8.0 16.0 0.00 0.00 0.00 84 1004.2
20260508075003 41 300 7.0 16.0 0.00 0.00 0.00 82 1004.2
20260508074534 41 299 6.0 13.0 0.00 0.00 0.00 83 1004.2
20260508074013 41 330 7.0 13.0 0.00 0.00 0.00 82 1004.2
20260508073511 42 326 8.0 16.0 0.00 0.00 0.00 83 1004.2
20260508073033 42 320 9.0 17.0 0.00 0.00 0.00 81 1004.2
20260508072511 42 326 12.0 17.0 0.00 0.00 0.00 83 1004.3
20260508072012 41 343 10.0 16.0 0.00 0.00 0.00 84 1004.2
20260508071532 41 337 9.0 15.0 0.00 0.00 0.00 83 1004.1
20260508071012 41 322 3.0 11.0 0.00 0.00 0.00 83 1004.1
20260508070511 41 305 5.0 11.0 0.00 0.00 0.00 81 1004.1
20260508070031 41 313 7.0 11.0 0.00 0.00 0.00 81 1004.2
20260508065511 41 314 6.0 12.0 0.00 0.03 0.00 81 1004.2
20260508065010 41 318 6.0 16.0 0.00 0.03 0.00 81 1004.4
20260508064544 42 322 8.0 16.0 0.00 0.03 0.00 79 1004.3
20260508064010 42 334 8.0 16.0 0.00 0.03 0.00 80 1004.3
20260508063510 42 338 9.0 17.0 0.00 0.03 0.00 79 1004.4
20260508063038 42 301 10.0 17.0 0.00 0.03 0.00 81 1004.3
20260508062510 42 301 12.0 17.0 0.00 0.03 0.00 81 1004.2
20260508062013 42 301 12.0 17.0 0.00 0.03 0.00 80 1004.3
20260508061537 41 304 10.0 16.0 0.00 0.03 0.00 81 1004.5
20260508061011 41 295 8.0 16.0 0.00 0.03 0.00 81 1004.4
20260508060513 41 319 8.0 18.0 0.00 0.03 0.00 80 1004.5
20260508060034 41 303 7.0 18.0 0.00 0.03 0.00 80 1004.7
20260508055514 41 313 6.0 14.0 0.00 0.11 0.00 79 1004.7
20260508055012 41 323 6.0 12.0 0.00 0.11 0.00 80 1004.6
20260508054530 41 301 5.0 12.0 0.00 0.11 0.00 79 1004.8
20260508054010 41 301 7.0 16.0 0.00 0.11 0.00 80 1004.8
20260508053511 41 311 8.0 16.0 0.00 0.11 0.00 79 1004.9
20260508053035 41 267 5.0 13.0 0.00 0.11 0.00 78 1004.9
20260508052515 41 290 6.0 14.0 0.00 0.11 0.00 77 1004.9
20260508052012 41 312 7.0 11.0 0.00 0.11 0.00 77 1004.9
20260508051534 41 302 6.0 10.0 0.00 0.11 0.00 77 1004.8
20260508051011 41 309 6.0 11.0 0.00 0.11 0.00 76 1004.8
20260508050510 41 282 6.0 11.0 0.00 0.11 0.00 76 1004.8
20260508050044 41 282 6.0 10.0 0.00 0.11 0.00 75 1004.9
20260508045510 41 306 5.0 10.0 0.00 0.24 0.00 75 1005.0
20260508045011 41 311 3.0 10.0 0.00 0.24 0.00 74 1004.9
20260508044536 41 336 3.0 10.0 0.00 0.24 0.00 74 1005.0
20260508044011 42 268 6.0 10.0 0.00 0.24 0.00 73 1005.0
20260508043515 41 318 5.0 9.0 0.00 0.24 0.00 74 1004.9
20260508043036 41 309 3.0 8.0 0.00 0.24 0.00 75 1005.0
20260508042513 41 282 3.0 6.0 0.00 0.24 0.00 76 1005.0
20260508042012 41 307 2.0 5.0 0.00 0.24 0.00 74 1005.1
20260508041535 41 319 1.0 3.0 0.00 0.24 0.00 75 1005.1
20260508041010 41 328 0.0 4.0 0.00 0.24 0.00 78 1005.0
20260508040512 41 328 2.0 5.0 0.00 0.24 0.00 75 1005.0
20260508040037 41 326 2.0 5.0 0.00 0.24 0.00 74 1005.0
20260508035516 41 318 2.0 5.0 0.00 0.37 0.24 75 1005.1
20260508035014 41 300 2.0 4.0 0.00 0.37 0.24 78 1005.0
20260508034536 41 300 0.0 4.0 0.00 0.37 0.24 77 1005.0
20260508034012 42 307 1.0 4.0 0.00 0.37 0.24 76 1005.1
20260508033512 42 299 1.0 4.0 0.00 0.37 0.24 76 1005.1
20260508033034 42 304 0.0 4.0 0.00 0.37 0.24 78 1005.1
20260508032511 42 320 2.0 6.0 0.00 0.37 0.24 77 1005.1
20260508032012 42 314 3.0 6.0 0.00 0.37 0.24 75 1005.0
20260508031532 41 325 4.0 9.0 0.00 0.37 0.24 79 1004.9
20260508031012 41 319 0.0 1.0 0.00 0.37 0.24 80 1005.0
20260508030510 41 319 0.0 0.0 0.00 0.37 0.24 80 1005.0
20260508030035 41 319 0.0 2.0 0.00 0.37 0.24 78 1005.1
20260508025506 42 319 0.0 2.0 0.00 0.48 0.24 79 1004.9
20260508025012 42 319 1.0 3.0 0.00 0.48 0.24 77 1005.0
20260508024548 42 319 0.0 3.0 0.00 0.48 0.24 77 1005.0
20260508024013 43 326 0.0 5.0 0.00 0.48 0.24 75 1005.0
20260508023510 44 326 1.0 6.0 0.00 0.48 0.24 74 1005.0
20260508023034 44 313 2.0 8.0 0.00 0.48 0.24 71 1005.0
20260508022513 44 333 4.0 11.0 0.00 0.48 0.24 69 1005.0
20260508022015 44 324 5.0 11.0 0.00 0.48 0.24 70 1005.0
20260508021535 44 323 5.0 9.0 0.00 0.48 0.24 71 1005.1
20260508021011 44 335 4.0 7.0 0.00 0.48 0.24 70 1005.1
20260508020513 45 329 3.0 6.0 0.00 0.48 0.24 69 1005.1
20260508020036 45 328 4.0 10.0 0.00 0.48 0.24 69 1005.1
20260508015510 44 328 6.0 10.0 0.00 0.53 0.24 69 1005.2
20260508015012 44 341 3.0 5.0 0.00 0.53 0.24 73 1005.3
20260508014540 44 299 0.0 3.0 0.00 0.53 0.24 71 1005.2
20260508014011 44 309 1.0 4.0 0.00 0.53 0.24 73 1005.3
20260508013507 44 249 2.0 4.0 0.00 0.53 0.24 71 1005.2
20260508013039 44 295 1.0 3.0 0.00 0.53 0.24 71 1005.3
20260508012515 44 295 0.0 3.0 0.00 0.53 0.24 72 1005.3
20260508012014 45 222 0.0 5.0 0.00 0.53 0.24 69 1005.5
20260508011551 45 222 0.0 5.0 0.00 0.53 0.24 67 1005.4
20260508011015 46 251 2.0 4.0 0.00 0.53 0.24 68 1005.4
20260508010511 46 255 0.0 4.0 0.00 0.53 0.24 65 1005.2
20260508010048 46 282 2.0 9.0 0.00 0.53 0.24 63 1005.1
20260508005508 47 281 5.0 9.0 0.00 0.56 0.24 64 1005.1
20260508005015 47 305 4.0 13.0 0.00 0.56 0.24 62 1005.1
20260508004551 47 290 8.0 13.0 0.00 0.56 0.24 63 1005.0
20260508004014 47 301 7.0 11.0 0.00 0.56 0.24 62 1005.1
20260508003510 47 328 7.0 12.0 0.00 0.56 0.24 64 1004.9
20260508003039 47 332 7.0 12.0 0.00 0.56 0.24 60 1005.0
20260508002516 47 308 6.0 10.0 0.00 0.56 0.24 64 1004.9
20260508002015 47 303 6.0 10.0 0.00 0.56 0.24 59 1004.9
20260508001541 48 290 5.0 9.0 0.00 0.56 0.24 61 1004.7
20260508001008 48 324 5.0 10.0 0.00 0.56 0.24 59 1004.7
20260508000518 48 326 4.0 10.0 0.00 0.56 0.24 62 1004.6
20260508000037 48 295 4.0 11.0 0.00 0.56 0.24 57 1004.7
20260507235511 48 309 5.0 11.0 0.00 0.59 0.24 57 1004.6
20260507235015 49 318 4.0 11.0 0.00 0.59 0.24 56 1004.6
20260507234533 49 295 6.0 11.0 0.00 0.59 0.24 57 1004.5
20260507234010 49 276 5.0 14.0 0.00 0.59 0.24 59 1004.5
20260507233514 49 307 7.0 14.0 0.00 0.59 0.24 55 1004.5
20260507233035 49 254 6.0 16.0 0.00 0.59 0.24 58 1004.5
20260507232515 50 305 9.0 20.0 0.00 0.59 0.24 54 1004.4
20260507232006 50 295 11.0 17.0 0.00 0.59 0.24 54 1004.3
20260507231529 50 310 11.0 18.0 0.00 0.59 0.24 55 1004.1
20260507231013 50 308 11.0 18.0 0.00 0.59 0.24 53 1004.3
20260507230512 50 281 8.0 18.0 0.00 0.59 0.24 56 1004.3
20260507230040 50 323 11.0 16.0 0.00 0.59 0.24 54 1004.2
20260507225513 51 312 8.0 16.0 0.00 0.71 0.24 55 1004.0
20260507225015 51 311 9.0 21.0 0.00 0.71 0.24 56 1004.1
20260507224542 51 305 11.0 21.0 0.00 0.71 0.24 57 1003.8
20260507224015 51 299 7.0 16.0 0.00 0.71 0.24 58 1003.9
20260507223515 51 328 11.0 18.0 0.00 0.71 0.24 62 1003.8
20260507223035 51 305 11.0 18.0 0.00 0.71 0.24 61 1003.8
20260507222514 51 330 10.0 20.0 0.00 0.71 0.24 62 1003.9
20260507222011 51 326 13.0 21.0 0.00 0.71 0.24 64 1003.8
20260507221537 51 340 13.0 19.0 0.00 0.71 0.24 63 1003.9
20260507221014 51 334 14.0 19.0 0.00 0.71 0.24 65 1003.7
20260507220516 51 336 13.0 19.0 0.00 0.71 0.24 65 1003.6
20260507220039 51 352 10.0 20.0 0.00 0.71 0.24 64 1003.7
20260507215516 51 326 14.0 20.0 0.00 0.79 0.24 65 1003.8
20260507215017 51 327 12.0 19.0 0.00 0.79 0.24 67 1003.7
20260507214534 51 295 13.0 19.0 0.00 0.79 0.24 66 1003.3
20260507214014 52 311 11.0 18.0 0.00 0.79 0.24 66 1003.4
20260507213515 52 320 12.0 18.0 0.00 0.79 0.24 63 1003.5
20260507213038 52 339 11.0 19.0 0.00 0.79 0.24 69 1003.4
20260507212511 52 332 12.0 21.0 0.00 0.79 0.24 69 1003.3
20260507212016 52 323 14.0 21.0 0.00 0.79 0.24 68 1003.2
20260507211528 52 328 14.0 21.0 0.00 0.79 0.24 67 1003.4
20260507211013 52 315 12.0 20.0 0.00 0.79 0.24 67 1003.3
20260507210510 51 334 12.0 16.0 0.00 0.79 0.24 69 1003.4
20260507210036 51 340 9.0 19.0 0.00 0.79 0.24 71 1003.3
20260507205511 52 305 13.0 19.0 0.00 0.96 0.24 71 1003.3
20260507205013 51 339 13.0 18.0 0.00 0.96 0.24 74 1003.2
20260507204545 51 324 11.0 19.0 0.00 0.96 0.24 73 1003.1
20260507204013 51 347 11.0 19.0 0.00 0.96 0.24 74 1003.0
20260507203510 51 347 12.0 19.0 0.00 0.96 0.24 73 1003.0
20260507203039 51 326 11.0 16.0 0.00 0.96 0.24 75 1003.0
20260507202514 50 332 12.0 19.0 0.00 0.96 0.24 75 1003.1
20260507202014 50 339 12.0 21.0 0.00 0.96 0.24 75 1003.1
20260507201539 50 312 13.0 21.0 0.00 0.96 0.24 75 1003.1
20260507201015 50 323 13.0 22.0 0.00 0.96 0.24 75 1003.1
20260507200513 50 334 15.0 23.0 0.00 0.96 0.24 75 1003.1
20260507200042 50 320 16.0 23.0 0.00 0.96 0.24 74 1003.0
20260507195508 50 339 14.0 24.0 0.00 1.12 0.24 76 1003.1
20260507195008 50 335 18.0 26.0 0.00 1.12 0.24 77 1003.1
20260507194540 51 326 19.0 26.0 0.00 1.12 0.24 74 1002.9
20260507194012 53 336 16.0 24.0 0.00 1.12 0.24 66 1002.8
20260507193512 53 329 14.0 24.0 0.00 1.12 0.24 65 1002.7
20260507193039 53 336 14.0 20.0 0.00 1.12 0.24 67 1002.5
20260507192514 53 345 13.0 18.0 0.00 1.12 0.24 65 1002.5
20260507192014 54 336 14.0 18.0 0.00 1.12 0.24 64 1002.4
20260507191530 54 332 13.0 19.0 0.00 1.12 0.24 63 1002.4
20260507191012 54 331 14.0 19.0 0.00 1.12 0.24 62 1002.4
20260507190515 54 341 14.0 19.0 0.00 1.12 0.24 62 1002.5
20260507190040 54 338 10.0 17.0 0.00 1.12 0.24 61 1002.5
20260507185512 54 339 11.0 17.0 0.00 1.24 0.24 60 1002.6
20260507185013 54 334 12.0 17.0 0.00 1.24 0.24 63 1002.6
20260507184542 54 335 11.0 14.0 0.00 1.24 0.24 66 1002.5
20260507184009 54 339 9.0 15.0 0.00 1.24 0.24 69 1002.6
20260507183513 54 339 12.0 15.0 0.00 1.24 0.24 68 1002.6
20260507183042 54 331 10.0 15.0 0.00 1.24 0.24 69 1002.6
20260507182510 54 341 9.0 15.0 0.00 1.24 0.24 65 1002.7
20260507182016 54 347 10.0 15.0 0.00 1.24 0.24 66 1002.7
20260507181539 54 316 10.0 13.0 0.00 1.24 0.24 69 1002.7
20260507181011 54 315 8.0 13.0 0.00 1.24 0.24 66 1002.8
20260507180514 54 322 9.0 17.0 0.00 1.24 0.24 66 1002.7
20260507180044 54 343 9.0 17.0 0.00 1.24 0.24 61 1002.7
20260507175513 54 347 6.0 13.0 0.00 1.31 0.24 64 1002.6
20260507175017 54 335 8.0 14.0 0.00 1.31 0.24 68 1002.6
20260507174538 54 324 10.0 16.0 0.00 1.31 0.24 66 1002.6
20260507174013 54 320 9.0 16.0 0.00 1.31 0.24 64 1002.5
20260507173516 54 345 5.0 14.0 0.00 1.31 0.24 66 1002.5
20260507173038 54 328 8.0 16.0 0.00 1.31 0.24 67 1002.7
20260507172512 54 339 10.0 16.0 0.00 1.31 0.24 66 1002.8
20260507172014 54 328 8.0 12.0 0.00 1.31 0.24 66 1002.9
20260507171538 54 344 8.0 12.0 0.00 1.31 0.24 66 1003.0
20260507171012 54 344 5.0 11.0 0.00 1.31 0.24 63 1003.1
20260507170517 54 318 6.0 11.0 0.00 1.31 0.24 65 1003.0
20260507170040 54 332 7.0 11.0 0.00 1.31 0.24 62 1003.2
20260507165514 53 334 6.0 10.0 0.00 1.32 0.24 66 1003.0
20260507165013 53 340 6.0 10.0 0.00 1.32 0.24 66 1003.2
20260507164539 53 342 6.0 11.0 0.00 1.32 0.24 67 1003.0
20260507164016 53 336 7.0 13.0 0.00 1.32 0.24 66 1003.2
20260507163514 53 330 8.0 13.0 0.00 1.32 0.24 66 1003.1
20260507163040 53 38 4.0 10.0 0.00 1.32 0.24 67 1003.1
20260507162513 52 345 7.0 10.0 0.00 1.32 0.24 68 1003.3
20260507162010 52 349 6.0 11.0 0.00 1.32 0.24 71 1003.4
20260507161540 52 346 7.0 11.0 0.00 1.32 0.24 71 1003.5
20260507161014 52 339 6.0 10.0 0.00 1.32 0.24 72 1003.7
20260507160513 52 339 5.0 11.0 0.00 1.32 0.24 70 1003.9
20260507160051 51 337 7.0 12.0 0.00 1.32 0.24 73 1003.9
20260507155513 51 344 7.0 12.0 0.00 1.32 0.24 73 1003.8
20260507155015 51 341 6.0 10.0 0.00 1.32 0.24 75 1003.9
20260507154542 51 347 6.0 10.0 0.00 1.32 0.24 75 1003.9
20260507154012 51 324 5.0 11.0 0.00 1.32 0.24 76 1004.0
20260507153514 51 341 7.0 9.0 0.00 1.32 0.24 76 1004.0
20260507153045 50 334 4.0 11.0 0.00 1.32 0.24 77 1004.1
20260507152513 50 342 7.0 11.0 0.00 1.32 0.24 76 1004.1
20260507152013 50 322 7.0 11.0 0.00 1.32 0.24 76 1004.4
20260507151533 50 334 6.0 16.0 0.00 1.32 0.24 77 1004.4
20260507151013 49 322 9.0 16.0 0.00 1.32 0.24 76 1004.4
20260507150517 49 303 6.0 12.0 0.00 1.32 0.24 80 1004.4
20260507150041 49 338 8.0 12.0 0.00 1.32 0.24 80 1004.3
20260507145515 49 340 7.0 11.0 0.00 1.32 0.24 79 1004.4
20260507145010 49 311 6.0 14.0 0.00 1.32 0.24 80 1004.6
20260507144540 49 333 4.0 12.0 0.00 1.32 0.24 80 1004.5
20260507144010 49 290 4.0 12.0 0.00 1.32 0.24 80 1004.5
20260507143516 48 353 5.0 12.0 0.00 1.32 0.24 81 1004.5
20260507143041 48 324 6.0 12.0 0.00 1.32 0.24 81 1004.6
20260507142513 48 327 7.0 12.0 0.00 1.32 0.24 81 1004.5
20260507142014 48 348 8.0 13.0 0.00 1.32 0.24 80 1004.6
20260507141553 47 329 9.0 13.0 0.00 1.32 0.24 81 1004.6
20260507141017 47 327 9.0 13.0 0.00 1.32 0.24 81 1004.5
20260507140515 47 336 8.0 12.0 0.00 1.32 0.24 83 1004.5
20260507140104 46 334 6.0 12.0 0.00 1.32 0.24 84 1004.5
20260507135514 46 300 8.0 12.0 0.00 1.32 0.24 83 1004.4
20260507135014 46 316 6.0 12.0 0.00 1.32 0.24 84 1004.5
20260507134541 46 308 7.0 16.0 0.00 1.32 0.24 86 1004.7
20260507134014 46 351 9.0 16.0 0.00 1.32 0.24 85 1004.8
20260507133514 46 317 10.0 14.0 0.00 1.32 0.24 85 1004.8
20260507133038 46 268 9.0 14.0 0.00 1.32 0.24 86 1004.9
20260507132514 45 339 7.0 12.0 0.00 1.32 0.24 87 1004.8
20260507132013 45 307 9.0 12.0 0.00 1.32 0.24 87 1004.6
20260507131540 45 312 8.0 16.0 0.00 1.32 0.24 88 1005.0
20260507131015 45 346 10.0 15.0 0.00 1.32 0.24 87 1005.1
20260507130517 45 318 9.0 15.0 0.00 1.32 0.24 87 1005.3
20260507130046 45 295 6.0 15.0 0.00 1.32 0.24 87 1005.4
20260507125519 45 330 8.0 15.0 0.00 1.32 0.24 88 1005.4
20260507125013 45 320 7.0 14.0 0.00 1.32 0.24 88 1005.4
20260507124546 45 307 8.0 14.0 0.00 1.32 0.24 87 1005.4
20260507124015 45 334 7.0 14.0 0.00 1.32 0.24 88 1005.3
20260507123514 45 322 9.0 14.0 0.00 1.32 0.24 87 1005.4
20260507123052 45 338 6.0 14.0 0.00 1.32 0.24 90 1005.4
20260507122514 44 327 7.0 13.0 0.00 1.32 0.24 88 1005.2
20260507122013 44 324 7.0 15.0 0.00 1.32 0.24 89 1005.2
20260507121543 44 322 8.0 14.0 0.00 1.32 0.24 89 1005.4
20260507121016 44 295 6.0 13.0 0.00 1.32 0.24 89 1005.4
20260507120513 44 324 9.0 13.0 0.00 1.32 0.24 89 1005.2
20260507120032 44 340 6.0 10.0 0.00 1.32 0.24 89 1005.3
20260507115509 44 335 4.0 11.0 0.00 1.32 0.24 91 1005.4
20260507115010 43 335 5.0 13.0 0.00 1.32 0.24 91 1005.4
20260507114533 43 332 7.0 13.0 0.00 1.32 0.24 90 1005.3
20260507114013 43 337 6.0 12.0 0.00 1.32 0.24 90 1005.4
20260507113514 43 301 6.0 12.0 0.00 1.32 0.24 90 1005.3
20260507113030 43 282 6.0 13.0 0.00 1.32 0.24 90 1005.3
20260507112514 43 312 6.0 13.0 0.00 1.32 0.24 90 1005.2
20260507112015 43 312 5.0 11.0 0.00 1.32 0.24 90 1005.1
20260507111523 43 305 6.0 11.0 0.00 1.32 0.24 90 1005.0
20260507111011 43 333 5.0 9.0 0.00 1.32 0.24 91 1005.0
20260507110517 43 295 4.0 10.0 0.00 1.32 0.24 91 1005.0
20260507110032 43 321 6.0 10.0 0.00 1.32 0.24 90 1004.9
20260507105512 43 312 4.0 9.0 0.00 1.32 0.24 91 1005.0
20260507105013 43 341 4.0 11.0 0.00 1.32 0.24 91 1005.0
20260507104536 42 320 4.0 11.0 0.00 1.32 0.24 91 1005.1
20260507104016 42 320 6.0 13.0 0.00 1.32 0.24 92 1005.0
20260507103511 42 318 7.0 13.0 0.00 1.32 0.24 91 1005.0
20260507103031 42 338 6.0 11.0 0.00 1.32 0.24 91 1005.0
20260507102517 42 290 6.0 10.0 0.00 1.32 0.24 91 1005.1
20260507102013 42 303 5.0 10.0 0.00 1.32 0.24 91 1005.2
20260507101539 42 309 4.0 10.0 0.00 1.32 0.24 91 1005.1
20260507101012 42 290 7.0 11.0 0.00 1.32 0.24 91 1005.0
20260507100513 43 282 6.0 11.0 0.00 1.32 0.24 90 1004.9
20260507100034 43 302 4.0 11.0 0.00 1.32 0.24 92 1004.8
20260507095514 43 328 4.0 10.0 0.00 1.33 0.24 92 1004.7
20260507095006 43 316 5.0 10.0 0.00 1.33 0.24 92 1004.5
20260507094533 43 335 5.0 9.0 0.00 1.33 0.24 93 1004.3
20260507094015 42 318 5.0 9.0 0.00 1.33 0.24 94 1004.0
20260507093513 43 305 3.0 6.0 0.00 1.33 0.24 93 1004.1
20260507093039 43 327 4.0 10.0 0.00 1.33 0.24 93 1003.9
20260507092511 43 311 7.0 10.0 0.00 1.33 0.24 93 1004.2
20260507092011 43 308 5.0 9.0 0.00 1.33 0.24 92 1004.1
20260507091519 43 331 2.0 6.0 0.00 1.33 0.24 92 1004.4
20260507091010 43 295 2.0 7.0 0.00 1.33 0.24 92 1004.5
20260507090508 43 299 4.0 10.0 0.00 1.33 0.24 91 1004.5
20260507090034 43 314 5.0 10.0 0.00 1.33 0.24 92 1004.5
20260507085509 43 303 0.0 4.0 0.00 1.33 0.24 93 1004.4
20260507085014 43 295 1.0 4.0 0.00 1.33 0.24 92 1004.4
20260507084532 43 324 0.0 3.0 0.00 1.33 0.24 92 1004.1
20260507084017 44 324 0.0 5.0 0.00 1.33 0.24 91 1004.3
20260507083511 44 324 2.0 10.0 0.00 1.33 0.24 91 1004.3
20260507083038 44 327 4.0 13.0 0.00 1.33 0.24 89 1004.4
20260507082511 44 301 7.0 13.0 0.00 1.33 0.24 90 1004.5
20260507082013 44 290 7.0 12.0 0.00 1.33 0.24 90 1004.4
20260507081534 44 331 8.0 15.0 0.00 1.33 0.24 94 1004.0
20260507081011 44 352 11.0 15.0 0.00 1.33 0.24 94 1003.9